Location: Caltech
(34.1382°N, 118.1253°W)
Time: 18:14:08
(UTC-08:00)

Cosmos 2333 Rocket - Visible Passes

Search period start: 18 January 2017 00:00
Search period end: 28 January 2017 00:00
Orbit: 842 x 860 km, 70.8° (Epoch: 17 January)

Date Brightness Start Highest point End Pass type
(mag) Time Alt. Az. Time Alt. Az. Time Alt. Az.
18 Jan 4.9 03:21:27 13° ESE 03:21:27 13° ESE 03:22:05 10° ESE visible
18 Jan 3.4 05:03:32 26° SW 05:03:32 26° SW 05:06:34 10° SSW visible
18 Jan 2.4 18:00:44 10° SSW 18:06:22 76° WNW 18:12:02 10° NNE visible
19 Jan 4.0 04:52:41 18° SSW 04:52:41 18° SSW 04:54:17 10° SSW visible
19 Jan 2.4 17:48:26 10° SSW 17:54:03 76° WNW 17:59:44 10° NNE visible
20 Jan 4.5 04:41:50 11° SSW 04:41:50 11° SSW 04:41:58 10° SSW visible
20 Jan 2.4 17:36:08 10° SSW 17:41:46 76° WNW 17:47:26 10° NNE visible
